星链-32153 (STARLINK-32153)

导读

STARLINK-32153是美国太空探索技术公司(SpaceX)发射的星链(Starlink)卫星,于2024年8月2日发射升空。该卫星属于星链互联网卫星星座的组成部分,主要服务于全球覆盖的低轨卫星互联网项目,为地面提供高速网络接入服务,进一步扩充了星链星座的部署规模,推进全球卫星互联网组网建设。

Basic Information
目录编号:
60330
目录名称:
STARLINK-32153
国际标识:
2024-136B
轨道中心:
EARTH
卫星名称:
星链-32153 (STARLINK-32153)
卫星全名:
星链-32153 (STARLINK-32153)
卫星状态:
在轨 (已飞行763 天)
发射日期:
2024-08-02 UTC
国别 :
美国 (US)
星等 :
--
Orbit Information
数据来源 国际轨道数据 AOE轨道数据
星历时间 2026-09-04T02:41:45+0800
9小时前
查看轨道信息
2026-09-02T16:00:00+0800
1天前
查看轨道信息
半长轴 6840.851km 6840.87km
偏心率 0.0001118 0.0001275
轨道倾角 53.159° 53.159°
近地点辐角 89.510° 72.334°
升交点赤经 327.558° 334.317°
平近点角 270.603° 217.796°
近地点 461.949km 461.86km
远地点 463.479km 463.606km
周期 93.848分钟 93.848分钟
每日圈数 15.343964 15.343902
Detailed Information
卫星平台:
Starlink v2.0 mini
运营商:
太空探索技术公司
运营商所在国:
美国
制造商(研发单位):
太空探索技术公司
制造商所在国:
美国
使用方式:
暂无
Satellite Introduction
星链(Starlink)计划是由太空探索技术公司(SpaceX)提出的一个巨型低轨卫星互联网星座项目,计划在2019年至2024年间在太空搭建由约1.2万颗卫星组成的“星链”网络,其中1584颗将部署在地球上空550千米处的近地轨道,并从2020年开始工作。该卫星仍在工作。
2D Orbit Map
3D Orbit Map
Orbit Altitude Analysis Chart
Orbit Inclination Analysis Chart
Orbit Comprehensive Analysis Chart
View Comprehensive Chart
Conjunction Data List
Event ID Objects TCA Miss Dist (km) Collision Risk Probability Collision Risk Index (CRI) Action
CDM_260904-084406-033006-323722
2026-09-04T
08:44:44+0000
0.726 km
远距离
7.683424E-5 中风险 0.73
CDM_260905-075005-210706-033021
2026-09-05T
07:50:55+0000
0.873 km
远距离
1.155986E-5 中风险 0.56
CDM_260905-101105-210706-033021
2026-09-05T
10:11:37+0000
1.478 km
极远距离
2.023022E-6 低风险 0.41
CDM_260903-110505-113206-033021
2026-09-03T
11:05:24+0000
2.364 km
极远距离
1.554291E-6 低风险 0.39
CDM_260904-022306-033006-223221
2026-09-04T
02:23:23+0000
2.831 km
极远距离
1.255436E-6 低风险 0.37
CDM_260905-083705-210706-033021
2026-09-05T
08:37:49+0000
1.857 km
极远距离
1.084036E-6 低风险 0.36
CDM_260903-061006-033006-047921
2026-09-03T
06:10:05+0000
2.833 km
极远距离
8.449876E-7 极低风险 0.34
CDM_260905-061705-210706-033021
2026-09-05T
06:17:08+0000
2.179 km
极远距离
7.628731E-7 极低风险 0.33